This is the latest recevied weather packets stored in our database for station/object WB4YDL. If no packets are shown the sender has not sent any weather packets the latest 10 day(s).
| Time | Temp. | Humidity | Pressure | Rain* | Wind** | Luminosity | Snow |
|---|---|---|---|---|---|---|---|
| 1778109448 | 13.33° C | 82% | 1009.3 hPa | 0 mm | - | 43 W/m² | - |
| 1778109146 | 13.33° C | 81% | 1008.9 hPa | 0 mm | - | 47 W/m² | - |
| 1778108843 | 13.33° C | 82% | 1008.8 hPa | 0 mm | - | 38 W/m² | - |
| 1778108540 | 13.33° C | 81% | 1008.8 hPa | 0 mm | - | 35 W/m² | - |
| 1778108236 | 13.33° C | 80% | 1008.6 hPa | 0 mm | - | 29 W/m² | - |
| 1778107933 | 13.33° C | 81% | 1008.8 hPa | 0 mm | - | 28 W/m² | - |
| 1778107630 | 13.33° C | 81% | 1008.3 hPa | 0 mm | - | 30 W/m² | - |
| 1778107327 | 13.33° C | 80% | 1008.7 hPa | 0 mm | - | 56 W/m² | - |
| 1778107023 | 13.33° C | 82% | 1008.4 hPa | 0 mm | - | 76 W/m² | - |
| 1778106719 | 13.33° C | 83% | 1008.7 hPa | 0 mm | - | 97 W/m² | - |
| 1778106416 | 13.89° C | 83% | 1009 hPa | 0 mm | - | 81 W/m² | - |
| 1778106111 | 13.89° C | 84% | 1009.2 hPa | 0 mm | - | 82 W/m² | - |
| 1778105810 | 13.89° C | 83% | 1009.5 hPa | 0 mm | - | 90 W/m² | - |
| 1778105508 | 13.89° C | 84% | 1009.5 hPa | 0 mm | - | 105 W/m² | - |
| 1778105204 | 13.89° C | 84% | 1009.8 hPa | 0 mm | - | 133 W/m² | - |
| 1778104899 | 13.33° C | 83% | 1009.8 hPa | 0 mm | - | 76 W/m² | - |
| 1778104596 | 13.33° C | 83% | 1009.8 hPa | 0 mm | - | 76 W/m² | - |
| 1778104291 | 13.33° C | 83% | 1009.8 hPa | 0 mm | - | 79 W/m² | - |
| 1778103988 | 13.33° C | 83% | 1009.7 hPa | 0 mm | - | 64 W/m² | - |
| 1778103686 | 13.33° C | 84% | 1009.7 hPa | 0 mm | - | 79 W/m² | - |
| 1778103384 | 13.33° C | 83% | 1009.6 hPa | 0 mm | - | 74 W/m² | - |
| 1778103081 | 13.33° C | 84% | 1009.8 hPa | 0 mm | - | 59 W/m² | - |
| 1778102778 | 13.33° C | 84% | 1009.8 hPa | 0 mm | - | 78 W/m² | - |
| 1778102473 | 13.33° C | 85% | 1009.8 hPa | 0 mm | - | 115 W/m² | - |
| 1778102169 | 13.33° C | 85% | 1009.8 hPa | 0 mm | - | 99 W/m² | - |
* Rain latest hour (hover to see other rain measurements)
** Current wind speed in m/s (hover to see current wind gust speed)